Weather in Rabotki

Russia / Nizhny Novgorod Oblast'     56°02′27″N   44°36′28″E
temp.,
°C
wind,
m/s
gust,
m/s
humid.,
%
clouds,
%
prec.,
mm/h
press.,
hPa
HPBL,
m
23 september, thu
thu2300:00+6ese399823 0.0 1017175
03:00+5e389971 0.0 1018186
06:00+8ese6988100 0.0 1018551
09:00+8ese5119397 0.3 1017389
12:00+10ese5118479 0.1 1017531
15:00+12se61171100 0.1 1016722
18:00+12se71273100 0.0 1015646
21:00+10se61280100 0.1 1014600
24 september, fri
fri2400:00+9se51095100 1.4 1013511
03:00+8se51194100 4.6 1012571
06:00+8sse61193100 0.4 1012549
09:00+9sse4893100 0.4 1011395
12:00+11sse4681100 0.0 1011662
15:00+12sse5676100 0.1 1010607
18:00+9se3587100 0.0 101091
21:00+8sse3592100 0.1 101088
25 september, sat
sat2500:00+7sse12916 0.0 101010
03:00+6ese119198 0.0 101010
06:00+7ese119498 0.0 100910
09:00+11se228697 0.1 1009292
12:00+13e217095 0.5 1009503
15:00+11e348055 1.4 1010213
18:00+9e33927 0.3 101035
21:00+7ese2294100 0.3 101123
26 september, sun
sun2600:00+7se2294100 0.0 101017
03:00+7sse1193100 0.0 101010
06:00+7se229472 0.0 101021
09:00+10se3580100 0.0 1009317
12:00+9ese2489100 0.3 1010181
15:00+13ene336884 0.4 1010634
18:00+10ne3684100 0.3 1011140
21:00+9ne3790100 0.4 1012187
27 september, mon
mon2700:00+7n3795100 0.0 1014168
03:00+7n379799 0.0 1015257
06:00+8n4894100 0.0 1016453
09:00+8nne4994100 0.4 1017657
12:00+9ne5888100 0.4 1019667
15:00+8ne5992100 0.8 1022617
18:00+6ne5892100 0.6 1024923
21:00+6ne3989100 0.6 1026568